[[{"header":{"parameterUnit":"m.s-1","parameterCategory":1,"la1":30.2991,"la2":30.254,"lo1":-89.0895,"lo2":-89.0444,"dy":0.0017,"dx":0.0017,"nx":28,"ny":28,"refTime":"2024-06-17T03:00:00:Z","depth":0,"parameterNumber":2,"parameterNumberName":"U-component_of_WINDS"},"data":[0,0,0,0,0,0,0,0,0,0,0,0,0,0,0,0,0,0,0,0,0,0,0,0,0,0,0,0,0,0,0,0,0,0,0,0,0,0,0,0,0,0,0,0,0,0,0,0,0,0,0,0,0,0,0,0,0,0,-5.4437,-5.4436,0,-5.4327,-5.4326,-5.4325,-5.4074,-5.4069,-5.4063,-5.4059,-5.3955,-5.3957,-5.3959,0,0,0,0,0,0,0,0,0,0,0,0,0,-5.4439,-5.4441,-5.4437,-5.4436,-5.4435,-5.4328,-5.4326,-5.4325,-5.4075,-5.4068,-5.4062,-5.4056,-5.3955,-5.3957,-5.396,0,0,0,0,0,0,0,0,0,0,0,0,0,-5.4396,-5.4441,-5.4438,-5.4297,-5.4283,-5.4328,-5.4326,-5.4324,-5.4076,-5.4068,-5.406,-5.4053,-5.3954,-5.3957,-5.396,-5.4136,0,0,-5.397,-5.3971,0,0,0,0,0,0,0,0,-5.4398,-5.4396,-5.4319,-5.4307,-5.4291,-5.4206,-5.4289,-5.4261,-5.4078,-5.4155,-5.4058,-5.4049,-5.4046,-5.4041,-5.4038,-5.4131,-5.4126,-5.397,-5.3972,-5.3973,-5.3974,0,0,0,0,0,0,0,-5.4402,-5.4399,-5.4394,-5.4318,-5.4301,-5.4242,-5.4227,-5.4282,-5.4146,-5.4148,-5.4129,-5.4119,-5.4037,-5.4035,-5.4033,-5.4125,-5.397,-5.3973,-5.3975,-5.3976,-5.4359,-5.4367,0,0,0,0,0,0,-5.4424,-5.4403,-5.4397,-5.4391,-5.4326,-5.4248,-5.4232,-5.4242,-5.4144,-5.4122,-5.4126,-5.4108,-5.4034,-5.403,-5.4029,-5.4229,-5.3973,-5.3976,-5.3978,-5.4351,-5.4361,-5.437,0,0,0,0,0,0,-5.4425,-5.4426,-5.4402,-5.4392,-5.4384,-5.4256,-5.427,-5.4244,-5.4241,-5.4128,-5.4103,-5.4149,-5.4027,-5.4024,-5.4111,-5.4222,-5.3978,-5.398,-5.4341,-5.4354,-5.4365,-5.4632,0,0,0,0,0,0,-5.4426,-5.4427,-5.4491,-5.4395,-5.4386,-5.4484,-5.4276,-5.4247,-5.4247,-5.4222,-5.4143,-5.4122,-5.4021,-5.4107,-5.4114,-5.4222,-5.3983,-5.433,-5.4347,-5.4361,-5.4613,-5.4652,-5.4686,0,0,0,0,0,-5.4427,-5.4572,-5.4495,-5.4496,-5.4462,-5.4491,-5.4486,-5.4363,-5.4257,-5.4321,-5.4248,-5.4125,-5.4209,-5.4118,-5.4124,-5.4235,-5.4323,-5.4342,-5.436,-5.4597,-5.4644,-5.4685,0,0,0,0,0,0,-5.4687,-5.4557,-5.447,-5.4588,-5.4552,-5.4448,-5.4525,-5.4418,-5.4414,-5.4391,-5.4242,-5.4227,-5.4335,-5.4292,-5.4194,-5.4401,-5.4246,-5.4267,-5.4424,-5.4469,-5.4505,-5.4513,-5.3985,0,0,0,0,0,-5.4758,-5.4789,-5.4674,-5.479,-5.4776,-5.4655,-5.4663,-5.4571,-5.4529,-5.4514,-5.4447,-5.4414,-5.4432,-5.4448,-5.4458,-5.4605,-5.4586,-5.4684,-5.4721,-5.4751,-5.4772,-5.4848,-5.4892,-5.4431,-5.4431,-5.443,0,0,-5.4905,-5.4838,-5.4867,-5.484,-5.4802,-5.4841,-5.4643,-5.4693,-5.4721,-5.4522,-5.4599,-5.455,-5.4502,-5.4621,-5.4669,-5.4589,-5.4894,-5.4775,-5.48,-5.4804,-5.4872,-5.4916,-5.4955,-5.4444,-5.4441,-5.4439,0,0,-5.5193,-5.5144,-5.5235,-5.52,-5.5143,-5.5061,-5.5084,-5.4996,-5.4955,-5.5029,-5.4881,-5.4914,-5.4949,-5.4922,-5.4913,-5.5193,-5.5081,-5.5201,-5.5392,-5.5469,-5.5505,-5.5537,-5.5639,-5.5677,-5.5221,-5.5221,-5.5222,0,-5.5385,-5.5434,-5.5297,-5.5355,-5.535,-5.5168,-5.5261,-5.5235,-5.5187,-5.5188,-5.5098,-5.5138,-5.5094,-5.5204,-5.5272,-5.527,-5.5294,-5.521,-5.551,-5.5541,-5.5568,-5.5664,-5.5703,-5.5237,-5.5235,-5.5233,-5.5232,0,-5.5673,-5.571,-5.5791,-5.5746,-5.5749,-5.5825,-5.5702,-5.5722,-5.5632,-5.5561,-5.5641,-5.5581,-5.5577,-5.5596,-5.5509,-5.5695,-5.5647,-5.5537,-5.5379,-5.5629,-5.5717,-5.5753,-5.5258,-5.5253,-5.5248,-5.5245,0,0,-5.6123,-5.6,-5.6033,-5.601,-5.5935,-5.5962,-5.6032,-5.6025,-5.6046,-5.6019,-5.6076,-5.611,-5.6007,-5.5997,-5.5905,-5.5972,-5.6201,-5.5852,-5.5849,-5.5922,-5.6405,-5.6491,-5.6536,-5.6125,-5.6131,-5.6136,-5.641,0,-5.6395,-5.6503,-5.6382,-5.6517,-5.6551,-5.638,-5.644,-5.6403,-5.6339,-5.6361,-5.6291,-5.6318,-5.6179,-5.6172,-5.623,-5.6161,-5.6296,-5.6139,-5.618,-5.6183,-5.6199,-5.6581,-5.6671,-5.6932,-5.6443,-5.6449,-5.6453,0,-5.6727,-5.6713,-5.6851,-5.6767,-5.6777,-5.6833,-5.6818,-5.684,-5.6795,-5.6744,-5.6734,-5.6622,-5.6688,-5.6533,-5.6623,-5.6519,-5.6528,-5.6497,-5.6504,-5.6505,-5.6335,-5.6595,-5.7012,-5.7053,-5.6505,-5.6501,-5.6497,0,-5.7044,-5.706,-5.7144,-5.7131,-5.7035,-5.7079,-5.7042,-5.6988,-5.6992,-5.6981,-5.6982,-5.698,-5.698,-5.6982,-5.6874,-5.6771,-5.6979,-5.6814,-5.6941,-5.6945,-5.6995,-5.6993,-5.7423,-5.6998,-5.6998,-5.6997,-5.6996,0,-5.7362,-5.7454,-5.7286,-5.7338,-5.7437,-5.7298,-5.7401,-5.7346,-5.7301,-5.7342,-5.7194,-5.7237,-5.7091,-5.7119,-5.7036,-5.7125,-5.7125,-5.7088,-5.7065,-5.7103,-5.7108,-5.7108,-5.7089,-5.7007,-5.7005,-5.7003,-5.7001,0,-5.7734,-5.7624,-5.7706,-5.7607,-5.7585,-5.7663,-5.758,-5.7627,-5.7552,-5.7607,-5.7612,-5.7498,-5.7524,-5.7415,-5.7423,-5.7367,-5.7501,-5.7446,-5.7516,-5.75,-5.7634,-5.7624,-5.808,-5.8134,-5.7674,-5.7679,-5.7683,0,-5.7944,-5.801,-5.7919,-5.7934,-5.7904,-5.7932,-5.7935,-5.7802,-5.7812,-5.7766,-5.7819,-5.7832,-5.7835,-5.7885,-5.7805,-5.7811,-5.7758,-5.7917,-5.7758,-5.7794,-5.7763,-5.7761,-5.7769,-5.7951,-5.7957,-5.7962,-5.7965,0,-5.8331,-5.8273,-5.8282,-5.8273,-5.828,-5.8267,-5.8245,-5.8267,-5.8123,-5.8143,-5.8166,-5.8169,-5.8176,-5.8192,-5.8182,-5.8146,-5.8035,-5.8016,-5.8046,-5.8086,-5.8124,-5.8108,-5.7609,-5.8006,-5.8002,-5.7999,-5.7997,-5.7995,-5.8629,-5.8681,-5.8625,-5.864,-5.8608,-5.8591,-5.863,-5.856,-5.8576,-5.8569,-5.8491,-5.853,-5.8485,-5.8459,-5.8435,-5.8466,-5.8392,-5.8435,-5.8446,-5.846,-5.8484,-5.8118,-5.8464,-5.8462,-5.8461,-5.846,-5.8459,0,-5.901,-5.8965,-5.898,-5.8952,-5.8966,-5.8854,-5.8824,-5.8844,-5.8879,-5.8845,-5.8851,-5.8879,-5.8894,-5.8815,-5.882,-5.8861,-5.881,-5.8867,-5.8864,-5.8858,-5.8549,-5.8523,-5.8908,-5.8908,-5.8908,-5.8908,-5.8908,-5.8908,-5.921,-5.9292,-5.9228,-5.9295,-5.9249,-5.9284,-5.9277,-5.9261,-5.9233,-5.927,-5.9281,-5.9228,-5.9177,-5.9177,-5.9188,-5.9164,-5.9175,-5.9251,-5.9211,-5.8923,-5.888,-5.8838,-5.8813,-5.9253,-5.9254,-5.9517,-5.9519,-5.9521]},{"header":{"parameterUnit":"m.s-1","parameterCategory":1,"la1":30.2991,"la2":30.254,"lo1":-89.0895,"lo2":-89.0444,"dy":0.0017,"dx":0.0017,"nx":28,"ny":28,"refTime":"2024-06-17T03:00:00:Z","depth":0,"parameterNumber":3,"parameterNumberName":"V-component_of_WINDS"},"data":[0,0,0,0,0,0,0,0,0,0,0,0,0,0,0,0,0,0,0,0,0,0,0,0,0,0,0,0,0,0,0,0,0,0,0,0,0,0,0,0,0,0,0,0,0,0,0,0,0,0,0,0,0,0,0,0,0,0,-3.7931,-3.7931,0,-3.7966,-3.7967,-3.7967,-3.794,-3.7939,-3.7937,-3.7936,-3.7969,-3.7971,-3.7973,0,0,0,0,0,0,0,0,0,0,0,0,0,-3.7835,-3.7837,-3.7931,-3.7931,-3.7932,-3.7966,-3.7967,-3.7967,-3.794,-3.7938,-3.7937,-3.7936,-3.7968,-3.797,-3.7973,0,0,0,0,0,0,0,0,0,0,0,0,0,-3.7874,-3.7838,-3.7931,-3.7923,-3.7922,-3.7966,-3.7967,-3.7967,-3.794,-3.7938,-3.7937,-3.7935,-3.7967,-3.797,-3.7973,-3.8026,0,0,-3.7982,-3.7983,0,0,0,0,0,0,0,0,-3.7872,-3.7878,-3.7923,-3.7923,-3.7923,-3.7947,-3.7945,-3.7987,-3.7941,-3.7933,-3.7936,-3.7934,-3.7963,-3.7966,-3.7976,-3.8027,-3.8029,-3.7982,-3.7984,-3.7985,-3.7986,0,0,0,0,0,0,0,-3.7869,-3.7876,-3.7945,-3.7924,-3.7924,-3.7915,-3.7919,-3.7953,-3.7957,-3.7934,-3.7932,-3.7937,-3.7962,-3.7973,-3.7977,-3.8029,-3.7982,-3.7985,-3.7986,-3.7988,-3.8122,-3.8124,0,0,0,0,0,0,-3.7868,-3.7874,-3.7944,-3.7946,-3.7893,-3.7919,-3.7923,-3.7941,-3.7957,-3.7958,-3.7938,-3.7935,-3.7969,-3.7973,-3.7978,-3.8038,-3.7985,-3.7988,-3.799,-3.8121,-3.8123,-3.8125,0,0,0,0,0,0,-3.7866,-3.7875,-3.7942,-3.7909,-3.7917,-3.7922,-3.7943,-3.7942,-3.7954,-3.796,-3.796,-3.7949,-3.7968,-3.7974,-3.8014,-3.8039,-3.7989,-3.7992,-3.8118,-3.8121,-3.8124,-3.8161,0,0,0,0,0,0,-3.7864,-3.7874,-3.7896,-3.791,-3.7919,-3.7979,-3.7944,-3.7944,-3.7959,-3.7956,-3.797,-3.7971,-3.7967,-3.8009,-3.8017,-3.8042,-3.7994,-3.8116,-3.812,-3.8123,-3.8158,-3.8165,-3.8171,0,0,0,0,0,-3.786,-3.7905,-3.7897,-3.7905,-3.7947,-3.7981,-3.7986,-3.7981,-3.7962,-3.7982,-3.7986,-3.7971,-3.8036,-3.8014,-3.8022,-3.8048,-3.8114,-3.8119,-3.8123,-3.8155,-3.8164,-3.8171,0,0,0,0,0,0,-3.7892,-3.7907,-3.7898,-3.7949,-3.7964,-3.7976,-3.8002,-3.7991,-3.8011,-3.8007,-3.8,-3.8003,-3.8045,-3.8051,-3.8026,-3.8099,-3.8072,-3.8077,-3.8093,-3.8102,-3.8108,-3.8105,-3.7997,0,0,0,0,0,-3.7905,-3.7934,-3.7944,-3.7988,-3.7996,-3.7998,-3.8013,-3.8008,-3.8022,-3.8028,-3.8035,-3.8049,-3.8072,-3.8088,-3.811,-3.8159,-3.816,-3.8181,-3.8188,-3.8193,-3.8198,-3.8222,-3.823,-3.8138,-3.8138,-3.8138,0,0,-3.7932,-3.7944,-3.7962,-3.7994,-3.8005,-3.8032,-3.8003,-3.8034,-3.8053,-3.8033,-3.807,-3.8076,-3.8091,-3.8135,-3.8155,-3.8141,-3.8224,-3.8199,-3.8203,-3.8204,-3.8227,-3.8236,-3.8243,-3.8141,-3.8141,-3.814,0,0,-3.7995,-3.8008,-3.8044,-3.8056,-3.8073,-3.8074,-3.8083,-3.8096,-3.8099,-3.8137,-3.8122,-3.8144,-3.8185,-3.8195,-3.8206,-3.8271,-3.8257,-3.8278,-3.8312,-3.8336,-3.8343,-3.8349,-3.837,-3.8378,-3.8283,-3.8283,-3.8283,0,-3.8026,-3.8068,-3.8064,-3.8095,-3.8109,-3.8092,-3.8127,-3.8139,-3.8162,-3.8171,-3.8155,-3.8205,-3.8214,-3.8259,-3.8275,-3.8285,-3.8293,-3.8276,-3.8343,-3.8349,-3.8355,-3.8374,-3.8382,-3.8286,-3.8285,-3.8285,-3.8285,0,-3.8104,-3.8133,-3.816,-3.8183,-3.82,-3.8233,-3.8232,-3.8249,-3.8243,-3.8244,-3.8282,-3.8292,-3.8314,-3.8325,-3.8319,-3.8369,-3.836,-3.8344,-3.8316,-3.8366,-3.8384,-3.8392,-3.8289,-3.8288,-3.8287,-3.8287,0,0,-3.8188,-3.8207,-3.8217,-3.8226,-3.8243,-3.8265,-3.8296,-3.8319,-3.8332,-3.8349,-3.8373,-3.8408,-3.8392,-3.8404,-3.8399,-3.842,-3.8468,-3.8401,-3.8401,-3.8411,-3.852,-3.853,-3.8539,-3.8459,-3.8461,-3.8462,-3.8518,0,-3.8249,-3.8305,-3.8301,-3.8353,-3.8378,-3.8362,-3.8388,-3.8401,-3.8403,-3.8423,-3.8425,-3.8449,-3.8429,-3.8435,-3.8455,-3.8458,-3.8489,-3.8454,-3.8479,-3.848,-3.8474,-3.8549,-3.856,-3.8613,-3.8525,-3.8526,-3.8527,0,-3.8329,-3.8347,-3.8402,-3.8413,-3.8423,-3.8448,-3.8466,-3.8487,-3.85,-3.85,-3.8513,-3.8504,-3.8533,-3.8506,-3.8545,-3.8521,-3.8531,-3.8534,-3.8536,-3.8536,-3.8505,-3.8549,-3.8629,-3.8636,-3.8539,-3.8538,-3.8537,0,-3.8381,-3.842,-3.8457,-3.8465,-3.848,-3.8497,-3.8504,-3.8515,-3.8528,-3.8544,-3.8552,-3.8572,-3.8582,-3.8597,-3.8593,-3.8574,-3.8632,-3.8605,-3.863,-3.8631,-3.8642,-3.8641,-3.8723,-3.8653,-3.8652,-3.8652,-3.8652,0,-3.8449,-3.8482,-3.848,-3.8502,-3.8538,-3.8533,-3.8568,-3.8572,-3.8582,-3.8603,-3.8591,-3.8611,-3.8605,-3.8625,-3.8622,-3.8653,-3.8658,-3.8657,-3.8656,-3.8657,-3.8657,-3.8662,-3.8658,-3.8654,-3.8654,-3.8654,-3.8653,0,-3.8512,-3.8513,-3.8551,-3.8562,-3.8565,-3.8591,-3.8599,-3.8619,-3.862,-3.8647,-3.8653,-3.8654,-3.8676,-3.8674,-3.8699,-3.8696,-3.8734,-3.873,-3.873,-3.8728,-3.8753,-3.875,-3.884,-3.885,-3.8775,-3.8776,-3.8777,0,-3.8555,-3.8579,-3.8592,-3.8606,-3.8614,-3.8637,-3.8649,-3.8645,-3.8659,-3.8674,-3.8692,-3.8713,-3.8729,-3.8765,-3.8767,-3.8785,-3.8779,-3.8809,-3.8782,-3.8782,-3.8776,-3.8774,-3.8775,-3.8814,-3.8815,-3.8815,-3.8816,0,-3.8628,-3.8627,-3.8647,-3.8666,-3.8682,-3.8697,-3.8711,-3.8723,-3.8719,-3.8735,-3.8757,-3.877,-3.8795,-3.8815,-3.8832,-3.8837,-3.8825,-3.8825,-3.8831,-3.8832,-3.883,-3.8829,-3.8742,-3.8822,-3.8822,-3.8821,-3.8821,-3.8821,-3.8681,-3.8701,-3.8713,-3.8735,-3.8744,-3.8757,-3.8775,-3.8779,-3.8798,-3.8818,-3.8814,-3.8838,-3.8848,-3.887,-3.8877,-3.8895,-3.8884,-3.8894,-3.8896,-3.8898,-3.89,-3.8829,-3.8898,-3.8898,-3.8898,-3.8898,-3.8898,0,-3.8752,-3.8758,-3.8778,-3.8797,-3.8814,-3.8803,-3.8817,-3.8831,-3.8853,-3.8864,-3.888,-3.8904,-3.8923,-3.8927,-3.8945,-3.8958,-3.8953,-3.8963,-3.8961,-3.8962,-3.891,-3.8901,-3.8967,-3.8967,-3.8967,-3.8967,-3.8967,-3.8967,-3.879,-3.8823,-3.8823,-3.886,-3.8866,-3.889,-3.8898,-3.8909,-3.8917,-3.8946,-3.8962,-3.8964,-3.8971,-3.8989,-3.9006,-3.9006,-3.9012,-3.9023,-3.9021,-3.8973,-3.8966,-3.8959,-3.8951,-3.9025,-3.9026,-3.9071,-3.9072,-3.9072]}]]